Wind_Speed
32 32 33 30 29 28 26 24 22 20 19 18 17 16 14 11 9 8 8 9 9 10 10 8 7 6 5 4 3 3 2 1 2 3 4 5 6 8 9 11 11 12 13 13 12 11 9 8 7 7 8 8 6 7 10 10 10 11 12 13 14 15 17 17 16 16 16 14 13 15 15 14 14 16 18 17 15 14 14 16 16 15 14 13 13
32 32 33 33 31 29 28 26 24 22 21 20 19 17 16 12 10 9 8 8 9 9 8 6 5 5 5 5 4 4 4 4 2 1 2 2 3 4 5 7 8 8 10 10 10 8 8 7 6 5 5 5 5 5 6 4 4 6 10 12 10 12 14 14 13 12 12 12 13 13 13 14 14 16 18 17 17 16 15 16 16 16 16 15 15
33 33 33 34 33 31 30 28 26 23 21 21 21 19 17 14 12 10 9 9 10 9 8 7 8 8 7 6 6 6 5 5 4 3 3 3 4 4 4 3 3 3 5 6 6 5 5 5 4 3 3 3 4 5 4 3 3 2 5 7 6 6 7 7 8 9 10 12 13 12 11 13 16 18 18 17 16 17 17 17 18 19 19 18 18
36 35 35 35 35 33 32 31 28 26 24 23 23 21 18 15 14 12 10 10 11 11 10 10 11 11 9 8 8 7 6 5 6 6 7 8 9 9 9 8 7 5 2 2 2 2 3 3 2 2 1 2 3 4 4 3 3 2 2 2 3 3 3 3 4 6 8 9 10 8 8 11 12 14 17 17 17 17 18 18 18 19 19 19 20
41 39 37 38 38 37 35 32 30 29 27 26 25 22 19 16 15 13 11 11 12 12 13 13 13 12 10 9 8 8 7 7 7 7 8 9 10 10 11 10 10 9 6 3 1 0 1 1 1 1 1 1 2 3 3 3 3 2 2 2 2 2 1 2 3 3 3 5 6 4 5 7 7 9 12 14 15 16 16 18 19 19 20 20 20
43 42 40 40 40 39 37 34 33 31 29 27 25 22 19 17 16 15 13 13 13 14 14 15 15 13 10 8 8 9 9 7 7 7 7 8 9 10 11 11 11 11 10 7 4 1 1 1 2 2 2 2 3 3 4 3 3 3 3 3 3 3 2 1 2 3 2 3 5 4 4 5 5 6 8 10 11 12 13 16 18 19 20 20 20
43 43 42 41 42 42 39 36 35 34 32 29 25 22 21 19 17 16 15 14 14 14 15 16 15 13 10 8 7 8 8 7 6 6 6 7 8 9 10 10 10 11 12 11 9 6 4 3 1 1 2 3 3 4 4 5 5 6 5 5 5 4 4 4 4 4 4 4 5 5 6 6 6 5 5 7 8 9 11 12 12 15 17 19 19
44 45 44 43 43 44 41 37 36 35 33 30 27 25 23 20 19 18 16 16 15 15 16 16 15 14 12 9 8 8 7 6 5 5 5 5 6 8 8 8 9 10 11 11 11 10 9 8 6 4 3 1 1 2 3 4 5 6 7 7 7 7 7 7 8 8 7 7 7 7 8 8 8 7 7 7 8 10 13 13 13 13 14 16 17
42 45 46 45 45 45 42 39 38 37 35 33 29 27 24 22 21 19 18 18 17 16 16 16 15 14 13 12 10 10 9 8 7 5 5 4 5 6 6 7 7 8 8 9 10 10 9 9 8 7 5 4 4 4 3 3 4 4 6 7 8 8 9 9 9 10 10 10 10 10 10 10 9 9 9 8 9 11 13 15 16 16 17 17 17
37 42 44 44 45 45 42 40 40 39 37 35 31 28 26 24 23 22 20 19 18 17 17 17 16 16 15 13 12 11 10 9 8 7 6 5 4 4 4 5 5 6 6 7 8 8 7 7 7 6 5 4 4 4 3 3 3 3 4 5 7 7 9 10 10 11 11 12 12 12 13 12 12 12 11 10 10 10 12 13 14 15 17 18 18
30 37 40 41 42 42 42 42 42 40 38 36 33 30 28 26 25 24 22 21 20 19 18 18 17 16 16 14 13 12 11 9 8 7 6 5 5 4 3 3 3 4 4 5 5 6 5 5 5 5 4 4 4 3 3 3 3 4 5 5 5 6 7 9 10 11 12 12 13 13 14 14 14 14 14 13 13 12 13 14 14 14 16 18 18
22 30 35 36 38 40 42 43 43 41 39 37 34 33 31 29 28 26 25 24 23 21 20 19 19 18 17 16 14 13 12 10 7 6 6 5 6 6 5 4 3 3 3 3 4 4 4 4 4 3 3 4 4 4 5 5 5 6 7 7 6 6 6 6 8 10 12 13 13 14 14 14 14 15 15 15 15 16 17 19 19 18 19 21 20
14 24 30 33 37 39 41 44 44 42 39 37 35 34 33 32 30 28 27 26 25 24 22 21 20 19 18 17 15 14 13 12 9 7 7 7 7 7 6 5 5 4 3 3 3 2 2 2 2 2 3 4 5 5 5 5 6 7 8 8 9 8 7 7 7 8 9 10 11 13 14 14 14 15 16 16 17 18 19 21 22 22 22 24 23
8 18 26 31 34 36 38 41 43 42 39 37 35 34 35 34 33 31 29 28 27 26 24 22 21 20 19 18 16 16 15 14 12 9 9 9 9 8 7 6 6 6 5 5 4 3 3 2 1 1 2 4 5 5 6 6 6 7 7 8 9 9 9 9 8 8 8 9 9 10 11 13 13 14 15 16 17 19 19 20 22 23 24 25 25
4 12 20 26 30 33 36 37 38 38 37 37 36 35 35 35 34 33 31 30 30 29 27 25 23 21 21 20 19 18 17 16 14 12 11 11 11 10 8 8 8 7 8 8 7 6 5 4 3 3 3 4 5 6 6 7 7 7 8 8 9 9 9 9 9 8 8 9 9 10 10 10 12 13 14 15 16 18 19 20 21 21 22 23 23
3 6 14 20 24 28 32 35 35 35 35 36 36 36 36 36 36 34 33 32 31 30 29 27 25 23 23 22 21 20 19 18 17 15 14 13 12 12 10 9 9 9 10 10 9 8 7 6 5 5 5 5 6 7 7 7 7 8 8 9 9 10 10 10 10 9 9 9 9 10 11 10 11 11 12 13 14 15 17 18 18 18 19 21 21
12 4 4 12 18 23 27 30 32 33 34 35 35 35 36 36 37 36 34 33 33 32 31 29 27 26 25 24 24 23 21 20 19 18 16 15 14 13 12 12 11 12 12 12 11 10 9 8 7 7 7 7 8 8 8 8 8 9 10 10 10 10 10 10 10 10 10 10 10 10 11 11 12 11 11 12 12 14 15 15 16 16 17 19 20
20 15 9 2 7 14 20 25 28 30 32 33 33 33 33 34 36 36 36 35 34 33 33 31 30 28 27 27 26 25 24 22 21 19 18 17 16 16 15 14 14 14 14 14 13 12 11 10 9 9 9 10 10 10 10 10 10 10 11 12 12 12 12 12 12 11 11 11 11 11 11 11 12 12 12 11 12 13 14 15 15 15 16 18 19
23 21 18 12 6 1 7 13 19 24 27 29 29 29 30 33 35 36 37 37 36 36 36 34 32 30 28 28 28 27 26 24 23 22 20 19 18 18 17 16 15 15 16 16 15 13 12 12 12 12 12 12 12 11 12 11 11 11 12 13 14 14 14 14 14 13 13 13 12 12 12 12 12 12 12 12 12 12 13 15 16 17 17 17 18
23 22 20 17 14 9 5 1 4 9 13 19 22 24 27 31 34 36 36 37 37 37 37 36 35 33 30 28 28 29 28 27 25 24 23 21 20 20 19 19 18 17 18 18 17 15 15 14 14 14 14 14 13 13 13 12 12 12 13 13 14 15 16 16 16 16 16 16 15 14 14 13 14 14 14 14 14 14 14 14 15 17 18 18 19
20 20 20 19 17 15 12 9 7 4 1 5 9 13 20 26 30 33 34 35 36 36 35 36 36 35 34 31 29 27 27 28 28 26 25 23 22 21 21 20 20 20 20 20 19 18 17 16 16 17 16 15 15 14 14 13 12 13 13 13 15 15 16 16 17 17 18 18 18 18 17 16 16 16 16 16 16 16 16 16 16 17 18 18 19
17 17 16 17 17 17 15 14 12 9 5 3 2 5 11 17 22 26 30 33 34 33 33 35 36 35 34 33 31 29 27 27 28 28 27 25 24 23 22 23 22 22 22 21 20 19 18 18 19 19 18 17 16 16 15 14 13 14 14 14 15 16 16 17 17 18 19 19 19 20 19 19 19 20 19 19 19 18 18 18 18 18 19 19 19
14 14 14 14 14 13 13 14 14 12 9 7 4 2 6 10 15 19 23 27 30 30 31 34 35 35 34 33 32 31 30 29 29 29 29 28 26 25 25 24 24 23 23 22 21 21 20 20 20 20 19 18 18 17 15 14 15 15 15 16 16 16 17 17 17 18 19 20 20 21 21 22 22 23 23 23 23 22 20 20 20 20 20 20 20
11 11 11 11 10 10 10 11 11 11 11 10 9 7 5 6 9 12 15 19 23 26 30 32 32 32 34 35 33 32 31 32 32 31 31 30 29 28 27 26 26 25 24 23 22 21 21 22 21 21 20 20 18 17 16 15 15 16 16 17 18 18 18 18 18 19 20 21 22 22 23 24 24 25 25 26 26 26 24 23 22 21 21 22 22
10 9 9 9 9 10 10 10 10 10 10 10 10 10 9 8 7 8 9 12 17 21 26 29 29 29 33 35 34 33 32 32 32 32 32 32 31 31 30 28 27 26 25 24 23 22 22 22 22 21 21 20 18 17 16 15 15 16 17 18 18 19 19 20 21 21 22 23 24 25 26 26 27 27 27 27 27 27 27 27 26 25 24 24 24
9 9 9 10 10 10 10 10 9 9 9 9 10 10 10 10 9 9 8 9 12 16 21 25 27 29 32 34 34 34 33 32 31 32 33 34 34 33 33 31 29 27 26 25 24 23 22 22 22 22 20 19 18 16 15 14 15 16 18 19 20 21 21 22 23 24 25 26 27 28 29 30 30 30 29 28 28 27 27 28 29 29 29 28 27
8 9 9 9 9 9 9 9 9 9 9 9 10 10 10 9 9 9 10 10 10 13 17 21 24 27 30 33 34 35 35 34 33 32 34 36 37 35 34 33 31 29 27 26 24 22 22 22 22 21 20 18 16 14 13 14 16 18 19 21 22 23 24 25 25 26 27 29 30 32 33 33 33 32 31 30 29 29 28 28 29 30 31 32 33
7 8 9 9 9 9 10 10 10 9 9 9 9 9 9 9 8 8 9 10 10 12 14 16 19 23 27 31 33 36 37 37 36 35 34 37 40 39 37 35 33 30 28 25 23 22 22 23 22 20 19 17 15 13 14 15 17 19 21 22 24 25 27 28 29 30 31 32 33 35 35 35 34 33 31 30 29 29 30 30 29 29 31 33 35
7 8 9 10 10 11 11 12 13 13 13 13 12 12 12 11 11 10 10 11 12 13 13 15 17 19 22 24 27 32 35 37 37 36 36 38 38 37 37 36 32 29 26 23 22 22 22 22 21 20 18 16 14 15 16 17 19 20 22 24 26 27 29 30 32 33 34 35 36 37 36 35 34 33 32 31 29 29 29 31 31 30 31 32 33
8 9 10 11 12 13 14 15 15 16 17 17 17 18 18 17 16 15 14 14 15 16 16 16 18 18 19 19 21 24 28 29 30 32 35 37 36 34 34 33 30 27 25 22 22 22 22 22 21 19 17 16 16 17 17 18 20 22 24 26 27 29 31 33 35 37 38 38 37 36 35 34 33 33 32 32 31 30 30 31 31 32 32 32 33
10 10 11 12 14 15 16 17 18 19 20 20 21 22 22 22 22 21 20 20 20 20 19 20 20 20 20 20 20 21 22 22 23 26 29 33 35 34 31 31 31 28 24 22 22 22 22 22 20 18 17 17 17 17 18 20 22 23 25 27 29 31 33 35 37 39 39 38 37 36 35 34 34 33 33 33 33 32 32 32 33 33 33 33 33
12 13 14 15 16 17 19 20 20 21 22 23 23 24 25 25 25 26 25 25 25 25 25 24 24 22 22 22 22 22 23 22 22 24 27 30 32 31 30 32 31 28 26 25 24 24 23 22 20 18 17 17 17 18 20 22 23 25 27 29 30 33 35 37 38 38 38 38 37 37 36 36 35 35 34 34 34 34 34 34 35 35 35 34 34
14 15 16 17 18 19 20 21 22 23 23 24 25 25 26 26 27 28 28 28 28 27 27 28 27 25 24 23 23 24 24 24 23 24 27 29 27 28 31 32 30 28 27 27 25 24 22 20 18 17 16 17 18 20 22 23 25 27 28 30 33 34 36 36 36 36 37 37 37 37 38 37 37 36 36 36 36 37 36 37 37 37 38 37 37
16 17 17 18 19 19 20 21 22 23 24 24 25 26 27 28 28 29 29 29 29 29 28 28 27 27 25 24 24 25 25 25 25 25 27 27 24 26 30 31 29 28 28 26 24 22 20 18 17 16 16 18 20 22 23 25 27 28 30 32 34 34 35 35 35 35 35 36 36 36 37 37 37 37 37 37 37 38 38 39 39 40 40 39 39
17 18 18 19 19 20 21 22 22 23 24 25 27 28 29 30 30 30 31 30 31 31 30 29 27 26 25 24 24 25 26 27 25 25 26 25 23 26 31 31 28 27 26 24 21 19 18 18 17 17 18 19 21 22 24 25 27 29 31 32 32 33 34 35 35 34 34 34 34 34 36 36 37 36 36 36 36 37 38 40 41 42 42 42 41
18 19 20 20 20 21 22 24 25 26 27 28 28 29 30 31 31 31 32 31 32 32 31 30 29 26 24 24 24 25 27 27 25 25 26 24 23 28 32 30 28 27 24 21 19 18 18 18 18 18 19 20 21 22 24 25 27 28 29 29 30 32 34 34 34 34 33 33 33 33 34 35 36 36 35 34 34 35 37 39 41 42 42 43 43
19 20 20 21 21 22 24 26 28 30 30 30 30 30 31 32 32 32 32 33 33 33 31 30 29 27 24 23 23 24 27 27 25 24 25 25 25 30 32 31 30 28 23 20 19 18 19 19 18 19 19 19 20 22 23 24 24 25 26 28 30 32 34 34 34 34 33 33 33 32 33 34 35 34 33 33 32 33 35 37 39 41 42 43 44
20 21 21 21 22 23 25 27 30 31 31 30 30 31 31 32 32 32 32 33 34 33 31 29 27 25 23 22 22 23 25 25 22 22 24 26 30 34 33 30 28 25 21 20 20 19 18 17 17 17 18 18 19 19 19 20 21 23 26 29 31 33 34 35 35 34 34 34 33 32 32 32 33 32 31 31 30 31 34 36 37 39 42 44 44
20 21 22 23 23 24 25 27 30 31 31 30 30 29 30 32 32 32 33 34 34 32 30 27 25 24 23 22 20 21 22 22 21 23 26 30 34 35 32 28 24 22 21 20 18 16 15 15 15 16 16 15 15 15 17 19 21 24 27 30 32 34 35 35 36 36 35 35 34 33 31 30 31 30 30 29 29 30 32 35 35 36 40 44 42
21 21 22 23 23 24 26 28 30 31 30 30 29 29 30 31 32 33 34 34 33 31 29 27 25 24 23 21 18 17 18 19 21 23 28 33 32 26 23 22 21 19 18 16 14 13 12 12 12 12 11 12 13 15 17 19 22 25 28 31 33 34 35 36 36 37 37 37 36 35 33 31 30 31 30 31 31 31 32 35 34 34 36 38 37
23 23 24 24 25 26 29 31 31 30 29 28 28 29 30 31 32 34 36 35 34 32 31 29 27 24 22 18 15 15 17 19 22 27 33 34 29 21 18 17 16 14 12 11 10 9 8 7 7 8 9 12 14 16 18 20 23 27 29 31 33 34 35 37 38 38 38 39 38 37 36 34 32 33 33 33 34 33 34 35 35 35 36 37 37
23 24 25 26 28 30 32 32 30 27 26 25 26 29 31 32 34 35 36 36 35 35 34 31 26 21 17 14 14 17 20 24 28 32 31 29 24 19 16 14 13 11 9 7 5 2 2 4 6 8 10 12 14 16 19 21 24 27 30 32 33 35 35 37 39 40 40 40 40 39 38 36 35 35 35 34 35 34 34 36 37 37 39 40 40
25 26 26 28 31 33 33 31 27 24 23 23 25 28 31 33 35 35 34 34 34 34 31 25 19 15 14 15 17 22 26 30 32 29 25 21 19 15 13 11 9 7 6 5 3 4 5 6 8 9 10 12 14 16 19 22 25 28 30 32 34 36 36 38 39 41 41 41 41 40 39 37 36 36 35 35 34 33 33 35 36 36 37 38 38
27 27 27 29 32 33 30 27 24 22 22 23 24 28 31 33 33 31 30 31 31 26 19 14 13 15 18 22 27 31 32 31 28 24 21 19 17 15 13 10 8 7 7 7 7 7 8 9 10 10 11 13 14 17 19 22 26 29 31 33 35 37 38 38 39 41 42 42 42 41 39 38 37 36 35 33 32 31 30 31 32 32 32 33 34
28 28 28 29 30 28 26 24 22 21 22 23 24 27 29 29 28 28 27 25 21 15 12 14 17 23 29 33 33 32 29 26 23 19 18 18 17 14 12 10 9 8 8 8 8 9 10 11 12 12 13 14 16 18 21 24 27 30 32 35 36 38 38 39 40 41 41 41 41 40 39 38 36 34 33 32 31 30 29 29 30 29 30 32 34
28 28 28 28 26 23 22 21 21 21 21 21 22 24 25 25 25 25 21 15 10 11 16 22 27 32 35 34 32 30 27 25 23 20 18 17 15 14 13 12 11 10 10 10 10 11 12 13 13 14 16 17 18 20 22 25 28 31 34 36 38 39 39 39 40 40 40 40 40 39 38 37 36 34 33 32 32 31 30 30 30 30 30 32 33
27 28 27 24 22 21 20 20 21 21 19 19 20 22 20 19 18 16 11 8 14 21 28 33 36 37 37 35 34 33 30 27 24 21 18 16 15 15 16 15 13 12 12 11 11 12 13 15 15 16 17 18 20 21 24 27 30 33 36 38 39 39 40 39 39 39 39 39 39 38 37 35 34 33 32 31 30 30 30 30 29 29 29 30 31
27 26 24 21 20 19 19 21 22 20 18 18 19 18 13 8 6 4 6 15 24 32 36 38 39 38 37 36 34 31 27 24 22 18 16 15 16 17 17 16 14 13 13 13 13 14 15 17 17 17 19 20 21 23 25 28 31 34 36 37 38 39 38 38 37 37 37 37 37 36 34 32 31 30 29 29 28 27 27 27 28 28 28 28 28
26 24 21 20 20 20 20 21 20 18 16 16 17 14 4 5 9 12 21 30 36 40 40 37 35 31 28 27 27 25 23 22 20 18 17 18 18 17 15 14 14 13 13 14 15 15 17 18 19 18 19 21 22 24 27 29 31 33 34 35 36 36 35 34 34 33 32 32 32 30 29 28 27 27 27 27 27 26 26 26 26 26 26 27 27
24 22 20 20 20 20 20 20 19 17 15 13 14 10 8 12 13 18 26 31 33 34 33 31 28 26 24 24 24 23 22 20 19 19 19 19 18 15 13 13 13 12 12 14 16 17 18 20 20 20 18 19 21 25 28 30 31 32 32 32 32 32 31 30 28 27 26 26 26 26 26 26 26 27 27 27 27 27 27 27 26 25 25 25 26
23 21 21 20 20 20 19 19 19 16 13 13 11 7 13 16 16 20 23 23 25 26 27 27 26 26 25 24 22 21 20 18 17 18 18 17 15 14 13 12 11 11 12 14 16 17 19 20 21 20 19 19 22 26 29 30 31 31 31 30 30 29 27 25 23 23 23 24 24 26 27 27 27 28 28 28 28 28 28 27 27 26 25 24 24
Wind_Direction
209 210 208 205 207 211 213 215 216 217 219 220 216 210 210 206 202 203 200 203 214 227 233 230 229 228 222 212 211 212 190 202 245 257 263 267 276 283 288 291 293 293 291 291 292 291 286 283 285 281 279 292 289 244 228 227 230 229 230 226 222 230 240 245 246 250 259 257 239 227 220 222 231 237 242 247 252 257 254 248 247 251 256 258 260
210 211 207 205 210 212 214 215 215 217 219 218 215 212 211 205 202 204 195 192 202 217 218 204 197 193 181 166 156 138 117 111 115 155 264 282 294 299 300 299 298 296 292 289 290 293 291 287 283 281 276 284 292 276 261 259 254 229 231 236 232 235 240 241 244 248 253 255 255 249 232 222 228 234 240 246 252 256 254 250 250 254 257 259 263
213 213 210 208 212 213 215 216 216 219 221 219 216 213 211 204 201 204 192 184 191 196 191 180 172 165 161 153 139 125 114 109 109 111 105 90 76 64 50 23 359 330 307 295 293 294 296 298 294 280 269 271 278 282 291 313 325 281 247 255 256 244 231 228 242 246 243 247 255 259 249 237 233 234 238 244 249 251 250 251 254 256 259 261 264
217 217 213 211 213 215 217 218 217 219 220 219 216 213 210 205 204 203 190 183 187 185 181 176 168 163 161 149 138 132 121 118 116 110 100 93 85 80 72 63 59 50 23 325 305 303 300 307 312 294 268 269 273 283 295 300 306 312 294 282 276 253 203 181 227 246 241 239 245 249 248 248 246 242 241 243 246 247 246 247 250 253 256 259 261
221 220 216 214 216 217 219 219 220 221 220 219 217 214 210 207 207 202 189 186 188 185 183 181 175 171 166 155 152 150 137 127 120 111 103 95 88 82 75 69 69 70 70 63 29 312 292 289 288 292 292 286 283 290 303 310 309 305 295 294 288 276 238 169 202 242 245 222 215 212 224 238 249 250 250 247 240 241 247 248 248 251 254 255 257
226 225 221 218 218 219 219 220 223 224 224 220 218 217 213 211 209 201 193 190 189 187 187 187 184 177 167 153 152 154 144 137 129 118 107 97 90 84 78 74 74 78 82 82 76 67 317 284 270 264 260 269 287 300 312 315 308 305 301 293 284 275 275 231 221 243 266 233 213 209 224 235 248 257 267 268 249 238 248 252 250 251 253 254 255
229 229 225 221 220 220 219 221 224 226 226 222 217 217 215 213 210 204 199 195 192 190 189 190 189 179 166 149 142 150 150 145 140 132 117 103 94 87 83 79 77 81 87 90 90 85 80 72 42 287 269 270 279 286 295 301 300 301 300 293 289 281 269 262 258 256 253 244 235 234 243 245 250 256 269 286 281 255 245 245 247 250 251 252 253
232 231 229 224 221 222 220 220 224 226 227 224 219 217 217 214 212 209 205 201 196 195 193 193 191 182 172 165 159 162 163 161 162 157 136 120 107 97 92 86 83 86 90 94 97 94 90 88 84 80 73 43 353 314 306 314 315 311 307 301 295 289 280 272 268 266 258 250 246 243 246 249 252 256 256 269 283 276 262 252 247 246 249 253 254
237 235 233 228 225 225 223 222 225 226 227 226 221 219 218 216 214 212 210 207 202 200 199 197 195 188 182 180 176 175 179 184 188 184 166 146 126 113 106 98 92 93 96 99 100 100 99 96 94 91 88 82 70 59 42 15 352 332 320 311 302 296 291 283 274 270 267 263 258 251 250 252 252 254 255 256 265 274 276 271 266 260 256 253 254
238 237 235 232 229 226 223 222 225 227 227 226 222 220 219 217 216 215 215 213 207 207 206 202 200 197 193 191 188 188 193 194 195 196 191 176 158 143 131 118 106 102 106 108 107 105 102 99 98 96 93 89 81 71 58 34 11 351 332 317 308 300 292 288 283 278 275 272 269 264 260 259 258 257 256 256 257 263 273 279 280 278 271 262 256
235 235 233 230 228 226 222 223 226 227 227 226 223 221 221 219 219 218 219 217 213 213 211 207 206 204 201 199 197 200 206 207 203 205 203 191 181 178 171 157 138 120 117 119 119 117 111 103 96 91 86 78 68 60 49 33 21 12 359 344 326 310 296 287 283 281 280 279 277 275 273 271 270 270 267 265 265 267 270 273 274 277 278 273 268
238 232 228 225 224 224 222 223 226 227 227 227 225 223 222 221 221 220 221 220 218 217 216 213 212 211 209 207 205 208 215 218 213 211 211 201 196 199 200 200 198 177 153 142 138 138 128 115 104 92 77 60 45 33 25 20 13 9 4 357 350 339 323 302 288 281 278 277 277 277 276 275 273 273 273 271 270 270 271 273 274 276 277 274 273
242 230 224 222 223 224 223 223 226 228 228 228 226 224 223 222 222 222 223 224 222 220 220 219 216 215 215 213 212 214 219 225 220 212 214 214 210 212 212 213 217 215 207 201 185 175 164 136 111 81 58 40 27 16 9 7 4 2 358 351 348 347 341 330 316 299 288 281 277 274 273 272 270 268 268 269 269 269 269 271 273 275 276 274 274
241 229 225 223 223 223 224 225 227 229 230 229 228 226 225 224 223 225 226 225 225 224 223 224 222 219 218 217 218 220 223 228 227 219 216 219 219 219 219 221 223 225 227 232 229 220 224 230 288 353 12 9 2 355 351 352 352 352 349 345 343 343 340 337 332 321 309 299 289 280 273 271 270 268 267 265 267 269 269 271 274 275 276 276 276
251 230 226 225 224 224 225 227 229 231 231 230 229 227 226 226 226 227 228 226 227 227 226 227 226 224 223 221 221 222 227 232 234 231 224 223 223 222 223 224 227 230 231 237 241 240 244 251 272 305 321 334 337 334 334 337 339 339 339 339 340 340 337 335 331 323 313 304 299 293 286 279 275 273 271 268 265 266 269 272 275 280 282 282 281
16 239 230 228 227 228 229 229 231 233 233 232 231 228 227 227 227 230 231 230 230 231 230 231 230 229 228 227 224 224 226 230 234 234 229 227 226 225 226 229 232 236 237 239 243 245 251 257 267 283 296 307 312 314 319 322 325 328 329 332 336 337 335 331 327 323 315 305 296 290 287 286 284 281 278 273 266 262 263 268 271 275 280 284 285
51 50 240 235 233 233 233 233 233 235 236 235 233 230 230 229 228 230 232 233 233 234 234 234 233 232 232 231 230 228 228 229 233 234 232 230 230 228 227 229 232 237 241 243 244 247 252 257 265 274 284 293 299 304 309 312 316 319 322 326 329 330 331 328 324 321 317 312 305 295 288 284 282 283 282 279 272 261 256 257 263 267 271 276 282
56 60 63 45 248 243 241 239 238 237 237 237 235 234 234 234 232 231 233 235 237 238 238 237 237 237 236 235 234 234 234 234 235 237 235 232 232 231 228 228 231 237 243 246 245 247 251 255 262 270 278 286 293 299 302 305 310 314 317 321 323 325 326 325 322 319 316 315 314 311 305 296 286 281 279 278 277 271 262 255 254 257 263 268 274
58 59 63 64 59 304 258 253 249 246 245 243 241 239 239 238 237 234 234 236 238 239 240 240 241 241 242 241 240 240 240 240 240 240 239 235 233 232 230 229 231 236 242 246 247 247 249 252 258 265 273 281 288 294 297 299 304 308 313 316 317 319 320 320 319 318 317 315 314 315 316 314 306 294 285 278 273 274 272 267 260 256 257 262 268
64 62 62 64 67 71 73 47 268 265 263 259 255 250 245 243 241 239 237 237 238 240 242 243 244 244 245 246 245 245 245 245 245 244 242 239 235 233 232 230 231 235 240 244 246 247 248 251 254 259 266 273 281 286 288 291 297 302 307 311 312 314 314 314 315 314 314 312 311 311 312 314 313 307 300 291 281 274 272 272 271 266 262 261 264
66 66 65 64 65 67 74 85 90 82 0 287 277 270 261 254 250 248 245 243 242 243 246 247 247 246 247 248 249 249 249 249 248 247 246 243 239 236 235 235 234 236 239 243 245 246 248 251 253 257 262 267 274 278 281 285 291 294 299 304 306 309 310 310 311 311 310 310 309 309 309 309 308 306 305 302 296 288 279 273 272 272 271 268 266
65 67 67 64 64 62 64 70 74 76 76 57 349 295 280 271 266 262 257 253 249 247 250 252 251 250 250 250 250 250 251 252 251 249 247 244 241 238 237 238 238 238 241 244 246 248 248 250 252 256 261 267 271 274 277 281 284 288 294 298 301 304 306 307 306 306 306 306 306 306 307 308 307 306 306 304 302 298 292 285 278 274 274 273 272
66 67 67 66 67 67 65 64 63 63 61 53 40 347 296 285 281 276 270 266 260 255 254 254 256 257 257 256 254 252 251 252 252 252 250 246 243 241 239 239 240 241 244 247 248 249 249 250 252 255 261 266 270 273 276 278 281 287 292 297 300 302 303 303 303 304 305 305 305 305 305 306 307 306 305 305 303 299 296 292 287 282 277 274 273
63 64 65 65 68 68 67 63 59 55 50 43 34 18 345 310 293 285 282 281 276 268 262 258 258 259 260 260 259 257 255 253 253 253 253 251 248 245 243 241 242 243 245 247 248 248 247 249 251 256 261 265 268 270 272 273 278 286 292 295 299 301 301 302 303 304 306 306 305 305 305 306 306 304 302 302 301 298 294 291 288 285 281 277 274
64 64 63 61 58 55 55 54 51 45 39 33 27 19 10 356 333 309 296 288 283 278 272 267 262 256 255 258 260 261 260 258 256 255 255 254 252 249 247 245 244 245 245 246 246 245 245 247 251 256 260 263 266 266 268 273 280 287 291 294 295 297 298 300 303 304 305 305 305 305 306 308 308 306 303 300 299 296 293 288 285 283 282 279 276
64 62 60 56 51 45 40 37 34 27 19 13 8 6 6 5 357 343 326 305 289 282 277 274 270 263 258 259 261 262 264 264 263 259 256 255 253 252 250 248 247 245 245 245 244 243 243 246 250 255 258 261 262 264 269 278 286 290 294 296 297 298 300 301 302 303 303 304 305 305 307 309 309 308 306 303 300 297 292 287 284 281 280 279 277
59 55 49 42 37 31 26 24 19 11 3 357 351 347 345 346 349 345 338 330 313 294 282 277 274 271 267 264 263 263 265 267 266 263 261 258 255 252 250 248 247 245 243 243 242 241 242 245 249 253 255 256 258 263 272 280 285 291 295 299 301 303 304 303 303 302 303 304 304 306 307 308 309 308 306 304 302 299 295 289 285 282 280 279 278
48 40 30 24 20 13 8 3 357 354 350 343 337 332 327 325 324 321 323 324 316 306 298 288 280 275 273 270 268 267 266 266 267 265 264 260 256 252 250 247 244 242 241 239 238 239 240 244 247 250 250 251 255 263 270 276 284 292 297 301 303 304 303 302 302 302 303 304 305 306 307 307 307 306 304 302 300 299 296 293 289 286 282 279 278
30 23 14 10 5 359 355 350 345 340 334 329 325 320 317 316 312 307 306 307 303 299 300 298 291 284 280 277 275 273 271 271 271 270 269 266 262 257 252 247 241 238 237 235 234 236 239 241 243 244 245 248 254 262 269 278 287 295 299 301 302 301 301 300 301 301 303 304 305 306 306 306 306 305 303 301 299 297 294 292 291 288 286 283 281
15 9 2 356 352 348 346 342 338 334 329 325 322 318 316 315 313 309 305 302 299 297 295 294 292 292 290 286 280 276 276 277 276 275 274 273 270 262 253 248 243 236 232 230 231 233 236 238 238 239 242 247 255 264 274 283 290 294 297 298 298 298 298 298 299 301 302 304 305 305 305 305 303 302 301 299 298 295 292 290 289 288 286 284 282
5 357 349 343 339 336 333 331 329 328 326 323 319 316 313 312 310 309 306 302 300 298 296 293 291 291 290 287 282 277 276 275 273 274 274 273 271 264 252 243 238 230 224 224 229 232 233 234 234 235 241 250 259 269 277 282 287 291 293 294 295 296 297 298 300 302 303 305 305 305 305 304 303 301 300 298 296 294 292 290 288 287 285 283 281
351 345 339 335 331 326 324 322 321 320 318 318 315 312 310 309 308 306 304 303 300 298 296 295 294 293 288 283 281 279 277 273 270 272 273 272 269 263 249 236 228 220 217 220 225 228 230 230 231 236 244 254 263 270 276 280 285 288 290 292 295 297 299 300 302 303 305 306 307 307 306 305 304 302 300 298 297 295 293 291 289 287 285 284 282
341 336 332 329 325 321 318 315 314 313 313 314 314 313 311 309 307 305 304 302 299 298 297 296 294 294 290 282 275 273 274 274 273 274 275 271 266 255 239 225 216 211 213 216 219 223 226 229 233 240 248 257 264 270 274 279 283 287 290 293 296 298 300 302 304 305 306 307 307 306 305 304 303 302 300 299 298 296 295 293 291 289 286 285 283
337 333 329 326 322 318 315 313 312 311 312 313 314 314 312 309 307 306 304 302 300 298 297 296 294 292 289 283 275 270 269 270 271 273 272 268 261 246 227 214 208 207 209 210 211 217 225 232 238 244 251 258 263 269 274 279 283 288 291 294 296 299 301 303 304 305 306 306 305 304 302 301 300 299 298 297 296 295 294 292 290 289 287 285 284
334 331 329 327 322 318 316 314 313 313 313 314 314 312 309 307 307 306 304 303 302 299 297 296 294 290 287 282 275 268 267 267 268 270 267 261 250 231 214 206 204 205 205 205 208 215 226 234 240 246 253 258 263 269 275 281 287 291 294 296 298 300 301 303 304 305 305 304 303 301 300 299 298 297 296 295 294 292 291 290 288 287 286 285 284
328 326 325 323 320 318 316 314 313 314 315 316 315 312 308 306 306 306 305 303 300 298 297 296 294 291 287 282 274 266 264 266 267 266 261 252 235 216 204 199 198 199 202 206 208 215 226 232 239 246 252 258 266 274 281 288 293 296 298 300 302 303 304 305 306 306 305 303 302 301 300 299 298 296 295 294 292 291 289 287 286 285 284 283 282
321 319 317 318 316 314 313 313 312 312 313 315 315 313 310 308 307 307 306 304 299 297 296 296 293 291 286 282 274 264 260 263 264 261 255 244 222 204 197 197 198 199 201 205 207 214 222 230 238 246 254 264 274 283 290 295 299 302 304 306 308 308 309 309 309 309 307 305 304 303 302 301 299 299 298 296 295 292 290 288 287 286 284 282 281
315 314 313 312 312 311 311 311 311 311 312 313 312 311 310 309 309 310 308 303 299 298 299 297 293 289 284 281 273 261 258 261 258 253 249 234 211 198 196 197 199 197 195 199 206 213 221 231 242 252 264 275 284 292 298 302 306 309 312 314 315 315 314 313 313 311 309 308 307 306 306 305 304 304 303 301 299 295 291 289 289 287 285 283 282
312 311 310 310 309 309 309 310 311 311 312 312 310 310 308 307 309 311 308 303 300 302 303 298 291 285 281 277 269 258 255 252 245 241 232 214 198 192 191 191 191 191 192 197 206 215 226 239 253 265 277 286 295 304 308 312 316 319 320 321 320 319 318 317 315 314 313 312 312 312 312 311 308 307 304 301 297 294 290 289 288 286 284 283 283
312 310 309 308 307 307 309 311 311 311 311 310 308 306 304 304 307 308 306 305 304 304 302 295 286 282 278 274 264 250 245 243 240 233 216 200 189 179 174 174 176 182 189 199 211 224 239 253 266 279 293 302 309 315 318 322 324 325 324 324 323 322 321 319 317 317 316 316 317 317 316 315 312 308 304 301 296 292 289 287 285 281 278 280 282
313 312 311 308 306 308 310 311 311 310 308 306 303 301 300 302 303 302 302 304 304 302 301 295 285 277 274 268 251 233 231 231 223 211 199 190 183 173 170 174 180 188 200 212 222 234 250 270 292 307 314 317 319 322 325 327 328 327 326 325 324 324 322 321 319 319 318 319 320 319 318 316 314 309 305 301 297 293 290 285 281 277 276 279 281
312 313 313 310 308 310 312 312 310 307 303 301 299 298 299 301 300 298 299 300 300 299 298 292 282 273 264 250 231 220 214 205 193 185 178 172 170 174 184 192 194 195 196 199 207 237 302 325 331 327 322 323 324 326 328 330 329 328 327 327 326 324 324 322 320 319 319 319 319 318 317 316 313 309 305 301 297 294 289 284 280 278 278 280 280
312 313 312 311 311 312 313 312 308 303 299 297 296 297 300 301 299 298 299 297 295 295 292 283 271 256 237 221 208 196 187 178 170 166 163 159 158 163 169 169 165 157 138 118 77 27 9 354 342 333 328 328 328 329 330 331 330 329 328 328 326 325 324 323 320 318 318 318 318 317 316 314 311 308 305 302 300 296 292 287 284 283 281 280 278
311 311 311 312 312 313 313 310 306 304 299 295 295 298 301 300 300 301 301 296 292 290 283 264 244 226 204 187 177 170 165 160 155 155 157 155 150 149 145 134 120 104 85 66 45 30 17 3 353 346 341 337 333 332 333 334 332 330 329 327 326 325 324 323 320 319 318 318 317 315 313 311 310 309 308 306 303 300 296 293 291 288 286 284 280
308 307 310 312 312 311 309 307 307 306 301 297 299 302 302 303 306 306 301 296 292 282 253 226 209 191 175 164 158 154 151 147 144 146 149 147 143 143 139 123 104 89 76 64 52 40 27 15 5 355 350 345 341 338 338 336 333 329 328 327 326 325 325 323 321 319 318 316 314 313 312 312 313 313 312 311 308 305 301 297 294 290 285 281 277
304 306 310 311 309 306 304 305 308 307 303 302 305 306 307 309 310 307 301 292 270 231 204 187 175 164 157 151 143 136 132 129 127 125 126 125 124 122 120 116 110 98 85 74 61 45 30 18 8 358 351 347 343 340 337 334 331 328 327 327 327 326 325 323 321 319 317 316 314 314 315 316 317 316 314 311 308 305 302 298 294 290 284 279 274
300 305 309 307 303 302 302 303 306 305 302 304 307 309 311 312 310 305 293 241 196 177 163 154 148 143 138 133 128 124 121 119 117 116 115 113 113 114 114 114 110 99 87 75 58 42 29 17 8 0 352 346 343 340 337 334 331 329 328 327 327 327 325 323 321 319 318 317 316 317 318 318 316 313 310 306 302 300 298 295 293 289 284 280 277
298 304 305 299 295 297 298 300 303 302 299 300 305 308 311 316 318 292 185 164 154 145 138 134 132 129 126 123 122 122 121 119 118 116 115 117 121 121 116 112 105 93 79 65 51 38 26 16 9 1 353 349 346 343 339 336 333 330 328 328 328 328 326 323 321 320 318 317 317 317 317 315 313 311 308 305 304 302 300 297 294 291 288 284 281
297 301 299 291 287 290 296 300 301 298 291 290 297 298 279 131 120 132 141 139 135 132 131 130 128 125 124 123 124 127 127 124 123 123 124 126 127 123 116 108 96 83 69 56 45 35 23 15 10 3 355 350 347 344 341 339 335 332 331 331 331 329 326 322 320 319 317 316 316 317 317 318 318 318 316 313 312 310 306 303 299 297 294 290 285
295 297 295 289 284 287 295 300 299 292 278 274 284 276 195 160 146 140 137 135 133 132 130 129 129 129 128 126 125 125 124 124 127 133 134 131 126 120 111 101 89 78 64 47 36 28 19 12 8 3 357 352 348 346 344 342 339 338 338 337 335 331 325 321 320 320 318 319 321 324 327 329 329 327 324 322 320 318 314 310 307 304 299 295 290
292 291 293 293 289 288 292 296 297 288 265 257 266 228 174 165 154 140 133 132 132 130 128 128 130 130 130 128 125 124 124 126 132 136 133 127 122 117 109 97 82 67 51 36 26 19 12 7 3 1 359 355 352 350 348 346 344 344 343 343 341 335 327 324 327 328 328 331 336 337 338 338 336 333 330 328 325 322 319 316 313 309 305 301 295
Height
1497 1498 1500 1502 1503 1504 1506 1507 1508 1509 1510 1511 1512 1512 1513 1514 1515 1516 1517 1517 1518 1519 1519 1520 1521 1522 1522 1523 1523 1524 1524 1525 1525 1525 1526 1526 1527 1527 1527 1527 1526 1526 1526 1526 1527 1528 1528 1529 1529 1530 1531 1531 1531 1531 1532 1534 1534 1535 1536 1535 1536 1539 1540 1540 1541 1541 1541 1542 1543 1543 1543 1544 1545 1546 1547 1547 1548 1549 1550 1551 1552 1553 1553 1554 1554
1496 1496 1498 1501 1501 1503 1504 1505 1506 1507 1508 1509 1511 1512 1512 1514 1515 1515 1516 1517 1518 1519 1520 1521 1521 1522 1523 1523 1523 1524 1525 1525 1525 1525 1526 1526 1526 1527 1526 1526 1526 1525 1525 1525 1525 1526 1527 1527 1528 1529 1530 1530 1531 1531 1531 1532 1534 1534 1534 1534 1534 1536 1537 1538 1539 1539 1540 1540 1541 1541 1542 1543 1544 1544 1545 1546 1547 1547 1548 1549 1550 1551 1552 1552 1553
1493 1494 1496 1498 1500 1501 1502 1503 1505 1506 1508 1509 1510 1511 1512 1513 1514 1515 1515 1516 1517 1518 1520 1521 1521 1522 1523 1524 1524 1524 1525 1525 1525 1525 1526 1526 1526 1526 1526 1526 1525 1525 1525 1524 1525 1525 1526 1527 1527 1528 1529 1529 1530 1530 1531 1532 1532 1532 1533 1533 1534 1534 1536 1537 1538 1538 1538 1539 1540 1540 1541 1542 1542 1543 1544 1544 1545 1545 1546 1547 1548 1549 1550 1551 1552
1490 1491 1494 1496 1498 1499 1500 1501 1503 1505 1506 1507 1508 1509 1511 1512 1513 1514 1515 1516 1517 1518 1520 1521 1521 1522 1523 1523 1524 1524 1525 1525 1525 1526 1526 1526 1526 1526 1526 1525 1525 1524 1524 1524 1525 1525 1526 1526 1527 1528 1528 1529 1529 1529 1530 1531 1531 1532 1532 1533 1533 1533 1534 1535 1536 1536 1537 1538 1538 1539 1540 1540 1541 1541 1542 1543 1543 1543 1544 1545 1546 1547 1548 1549 1549
1486 1488 1490 1492 1494 1495 1497 1500 1502 1503 1504 1505 1507 1508 1510 1512 1513 1514 1515 1516 1517 1518 1519 1520 1521 1521 1522 1523 1524 1524 1525 1525 1526 1526 1526 1526 1526 1527 1526 1526 1525 1525 1525 1524 1525 1525 1526 1526 1527 1527 1528 1528 1528 1529 1529 1530 1530 1531 1531 1532 1532 1533 1533 1534 1535 1535 1536 1536 1537 1538 1539 1539 1540 1540 1541 1541 1541 1541 1542 1543 1544 1545 1545 1546 1547
1483 1484 1486 1488 1490 1492 1495 1498 1499 1500 1502 1504 1506 1508 1510 1512 1513 1514 1515 1516 1517 1518 1519 1520 1521 1521 1522 1523 1523 1524 1525 1525 1526 1526 1526 1526 1527 1527 1526 1526 1526 1525 1525 1525 1525 1525 1526 1526 1527 1527 1528 1528 1528 1529 1529 1529 1530 1530 1530 1531 1531 1532 1532 1533 1534 1534 1535 1535 1536 1537 1538 1538 1539 1539 1540 1539 1539 1540 1541 1541 1542 1543 1543 1544 1544
1481 1481 1483 1485 1487 1489 1492 1495 1496 1497 1500 1503 1506 1508 1509 1510 1512 1513 1514 1515 1516 1517 1518 1520 1520 1521 1522 1523 1523 1524 1524 1525 1526 1526 1526 1526 1527 1527 1527 1527 1526 1526 1526 1526 1526 1526 1526 1526 1527 1527 1527 1528 1528 1528 1529 1529 1529 1529 1529 1530 1530 1531 1531 1532 1532 1533 1534 1535 1535 1536 1537 1537 1538 1538 1539 1539 1538 1539 1540 1540 1540 1541 1541 1542 1542
1477 1477 1479 1482 1484 1486 1489 1491 1493 1495 1498 1501 1504 1505 1507 1509 1510 1512 1513 1514 1515 1516 1518 1519 1520 1521 1521 1522 1523 1524 1525 1525 1526 1526 1526 1526 1527 1527 1527 1527 1527 1527 1527 1527 1527 1527 1527 1527 1527 1527 1527 1528 1528 1528 1528 1528 1529 1528 1528 1529 1529 1530 1530 1531 1531 1532 1533 1533 1534 1535 1535 1535 1536 1537 1538 1538 1538 1537 1537 1538 1539 1539 1540 1541 1541
1472 1473 1474 1477 1480 1482 1486 1489 1491 1494 1496 1499 1502 1504 1506 1508 1509 1510 1512 1513 1514 1515 1517 1518 1519 1520 1521 1522 1523 1524 1524 1525 1525 1526 1526 1526 1527 1527 1527 1528 1528 1527 1527 1527 1527 1528 1528 1528 1528 1528 1528 1528 1528 1528 1529 1529 1529 1528 1528 1528 1528 1528 1529 1529 1530 1530 1531 1532 1533 1533 1534 1534 1535 1536 1537 1537 1537 1536 1535 1536 1537 1537 1538 1539 1540
1467 1468 1470 1473 1477 1479 1484 1488 1490 1492 1495 1497 1501 1503 1505 1506 1508 1509 1510 1511 1513 1514 1516 1517 1519 1519 1520 1521 1522 1523 1524 1524 1525 1526 1526 1526 1527 1527 1528 1528 1528 1528 1528 1528 1528 1528 1528 1529 1529 1529 1529 1529 1529 1529 1529 1529 1529 1528 1528 1528 1528 1528 1528 1528 1528 1529 1530 1530 1531 1532 1532 1533 1534 1535 1535 1535 1535 1534 1533 1533 1534 1535 1535 1536 1537
1463 1465 1468 1472 1476 1479 1483 1486 1487 1490 1493 1496 1499 1501 1503 1504 1506 1507 1509 1511 1512 1513 1515 1516 1518 1518 1519 1520 1522 1523 1523 1524 1525 1525 1526 1526 1526 1527 1527 1528 1528 1529 1529 1528 1528 1528 1529 1529 1529 1529 1529 1529 1529 1529 1529 1529 1529 1528 1528 1528 1528 1527 1527 1528 1528 1528 1529 1529 1529 1530 1530 1531 1532 1532 1533 1533 1533 1533 1532 1532 1532 1533 1533 1533 1534
1461 1464 1467 1471 1474 1477 1480 1482 1484 1487 1490 1493 1496 1499 1501 1502 1504 1506 1508 1509 1510 1512 1513 1515 1516 1517 1518 1519 1520 1522 1522 1523 1524 1525 1525 1525 1526 1526 1527 1528 1528 1528 1529 1529 1529 1529 1529 1529 1529 1529 1529 1529 1529 1529 1529 1529 1528 1528 1528 1527 1527 1527 1527 1527 1527 1527 1527 1528 1528 1528 1528 1529 1529 1530 1530 1531 1531 1531 1530 1530 1530 1531 1530 1530 1531
1461 1463 1466 1469 1471 1474 1477 1479 1481 1484 1487 1490 1493 1496 1498 1500 1502 1504 1505 1507 1509 1510 1512 1513 1515 1516 1517 1518 1519 1520 1521 1522 1523 1524 1524 1525 1525 1526 1526 1527 1528 1528 1528 1528 1529 1529 1529 1529 1529 1529 1529 1529 1529 1529 1529 1528 1528 1528 1527 1527 1527 1526 1526 1526 1526 1526 1526 1526 1526 1526 1527 1527 1527 1528 1529 1529 1530 1530 1529 1529 1529 1529 1528 1528 1528
1461 1463 1464 1467 1469 1472 1475 1477 1479 1482 1485 1488 1491 1493 1496 1498 1500 1501 1503 1506 1507 1508 1510 1511 1513 1514 1516 1517 1518 1519 1520 1521 1522 1523 1523 1524 1524 1525 1525 1526 1527 1527 1528 1528 1528 1528 1528 1528 1528 1528 1528 1528 1528 1528 1528 1528 1528 1528 1527 1527 1526 1526 1526 1526 1526 1525 1525 1525 1525 1525 1525 1525 1526 1526 1527 1528 1528 1528 1528 1527 1527 1527 1526 1525 1525
1462 1463 1465 1467 1469 1471 1474 1476 1479 1482 1484 1486 1489 1491 1493 1495 1497 1499 1501 1503 1505 1507 1508 1509 1511 1513 1514 1515 1516 1517 1518 1520 1521 1521 1522 1523 1523 1523 1524 1525 1526 1526 1527 1527 1527 1528 1528 1528 1528 1528 1528 1528 1528 1528 1528 1528 1528 1527 1527 1527 1526 1526 1525 1525 1525 1525 1524 1524 1523 1523 1524 1524 1524 1524 1525 1525 1526 1526 1526 1526 1525 1524 1524 1523 1522
1463 1464 1466 1468 1470 1471 1473 1475 1478 1481 1483 1485 1487 1490 1492 1493 1496 1497 1499 1501 1503 1505 1506 1508 1509 1511 1512 1513 1514 1516 1517 1518 1519 1520 1521 1521 1522 1522 1523 1523 1524 1525 1525 1526 1526 1526 1527 1527 1527 1527 1527 1527 1527 1527 1527 1527 1527 1527 1527 1526 1526 1525 1525 1524 1524 1523 1523 1523 1523 1522 1522 1522 1523 1523 1523 1523 1524 1524 1524 1524 1524 1524 1523 1521 1520
1465 1465 1467 1468 1470 1471 1473 1475 1477 1479 1481 1483 1485 1488 1491 1493 1495 1497 1499 1500 1502 1503 1504 1506 1508 1509 1510 1511 1513 1514 1515 1516 1517 1518 1519 1520 1520 1521 1521 1522 1522 1523 1524 1524 1525 1525 1525 1526 1526 1526 1526 1526 1526 1526 1526 1526 1526 1526 1526 1526 1525 1525 1524 1524 1523 1523 1522 1522 1522 1521 1521 1521 1521 1521 1522 1522 1522 1522 1522 1522 1522 1523 1522 1521 1519
1468 1467 1467 1469 1470 1472 1473 1475 1477 1478 1480 1482 1484 1487 1490 1492 1494 1496 1497 1499 1500 1501 1503 1505 1506 1508 1509 1510 1511 1512 1513 1514 1515 1517 1518 1518 1519 1519 1519 1520 1521 1521 1522 1522 1523 1523 1524 1524 1524 1524 1524 1524 1525 1525 1525 1525 1525 1525 1525 1524 1524 1523 1523 1523 1522 1522 1521 1521 1521 1521 1520 1520 1520 1520 1520 1520 1520 1520 1520 1520 1520 1520 1520 1520 1519
1472 1470 1470 1470 1471 1472 1474 1475 1477 1479 1480 1482 1484 1487 1489 1490 1491 1493 1495 1497 1499 1501 1502 1503 1505 1506 1508 1509 1510 1511 1512 1513 1514 1515 1516 1516 1517 1517 1518 1518 1519 1519 1520 1520 1521 1521 1522 1522 1522 1522 1523 1523 1523 1523 1523 1523 1523 1523 1523 1523 1522 1522 1522 1521 1521 1520 1520 1520 1520 1519 1519 1519 1518 1518 1518 1518 1518 1518 1518 1518 1518 1518 1517 1517 1517
1475 1474 1474 1473 1473 1474 1474 1475 1477 1479 1480 1482 1484 1486 1487 1488 1489 1491 1493 1496 1497 1499 1501 1502 1503 1505 1506 1507 1508 1509 1510 1511 1512 1513 1514 1514 1515 1516 1516 1517 1517 1518 1518 1518 1519 1519 1520 1520 1521 1521 1521 1521 1522 1522 1522 1522 1522 1522 1522 1521 1521 1520 1520 1520 1519 1519 1518 1518 1518 1517 1517 1517 1516 1516 1516 1516 1516 1516 1515 1515 1515 1515 1515 1515 1514
1477 1477 1477 1476 1476 1476 1476 1476 1477 1478 1480 1481 1483 1485 1486 1487 1488 1489 1491 1493 1494 1497 1499 1500 1501 1502 1504 1505 1506 1507 1508 1509 1510 1511 1512 1513 1513 1514 1514 1515 1515 1516 1516 1517 1517 1518 1518 1519 1519 1519 1520 1520 1520 1520 1520 1521 1521 1520 1520 1519 1519 1519 1518 1518 1517 1517 1516 1516 1515 1515 1515 1515 1514 1514 1513 1513 1513 1513 1513 1513 1513 1512 1512 1513 1512
1479 1479 1479 1479 1478 1477 1478 1477 1477 1478 1479 1480 1481 1483 1485 1486 1487 1488 1489 1490 1491 1494 1496 1496 1497 1498 1500 1501 1502 1504 1505 1506 1507 1508 1509 1510 1511 1512 1512 1513 1513 1514 1515 1515 1516 1517 1517 1518 1518 1518 1518 1518 1518 1519 1519 1519 1519 1518 1518 1518 1517 1517 1516 1516 1515 1515 1514 1514 1513 1512 1512 1512 1511 1511 1511 1510 1510 1510 1509 1509 1510 1509 1509 1510 1510
1480 1480 1480 1480 1480 1479 1479 1478 1479 1479 1479 1480 1481 1482 1483 1484 1485 1486 1487 1488 1489 1492 1492 1493 1494 1496 1497 1498 1499 1501 1502 1503 1504 1505 1506 1507 1508 1509 1510 1510 1511 1512 1513 1514 1514 1515 1516 1516 1516 1516 1517 1517 1517 1517 1517 1517 1516 1516 1515 1515 1514 1514 1514 1513 1513 1512 1512 1511 1511 1510 1510 1509 1509 1508 1508 1507 1507 1506 1506 1506 1506 1506 1506 1506 1507
1481 1480 1480 1480 1480 1480 1479 1479 1479 1479 1480 1480 1480 1481 1482 1483 1483 1484 1485 1486 1487 1489 1489 1490 1492 1494 1494 1495 1496 1497 1499 1500 1501 1502 1503 1504 1505 1506 1507 1508 1509 1509 1510 1511 1512 1513 1514 1514 1515 1515 1515 1515 1515 1515 1515 1515 1514 1513 1513 1512 1512 1511 1511 1510 1510 1510 1509 1509 1508 1508 1507 1507 1506 1506 1505 1505 1504 1503 1503 1503 1502 1502 1502 1502 1503
1481 1481 1480 1480 1480 1480 1479 1479 1479 1479 1480 1480 1480 1481 1481 1482 1482 1482 1483 1484 1484 1485 1486 1487 1489 1491 1490 1490 1491 1493 1495 1496 1497 1498 1500 1501 1502 1503 1504 1505 1506 1507 1508 1508 1509 1510 1511 1512 1513 1513 1513 1514 1514 1514 1513 1512 1512 1511 1510 1510 1509 1509 1508 1508 1507 1507 1506 1506 1505 1505 1505 1504 1503 1503 1502 1502 1501 1500 1500 1499 1499 1499 1499 1499 1499
1482 1481 1481 1480 1480 1480 1480 1480 1480 1480 1480 1480 1480 1481 1481 1481 1482 1481 1481 1482 1482 1483 1483 1484 1485 1487 1487 1487 1488 1489 1491 1492 1494 1495 1496 1497 1498 1499 1501 1502 1503 1504 1505 1506 1507 1508 1509 1509 1510 1510 1511 1511 1511 1511 1511 1510 1509 1509 1508 1507 1507 1506 1506 1505 1505 1504 1503 1503 1502 1501 1501 1501 1500 1499 1498 1498 1498 1497 1497 1496 1496 1495 1495 1495 1495
1482 1482 1481 1481 1481 1481 1481 1480 1480 1480 1480 1480 1480 1480 1481 1481 1481 1481 1480 1481 1481 1481 1481 1481 1482 1483 1483 1484 1485 1486 1487 1488 1490 1491 1492 1493 1493 1495 1496 1498 1500 1501 1502 1503 1504 1505 1506 1507 1507 1508 1508 1509 1509 1508 1508 1507 1507 1506 1506 1505 1504 1504 1503 1502 1502 1501 1500 1499 1499 1498 1497 1497 1496 1495 1495 1494 1493 1493 1492 1492 1492 1492 1491 1491 1490
1482 1481 1481 1481 1480 1480 1480 1480 1480 1480 1479 1480 1480 1480 1480 1480 1480 1480 1480 1480 1480 1479 1479 1479 1480 1480 1480 1481 1482 1483 1484 1484 1486 1487 1488 1489 1489 1491 1493 1494 1495 1497 1499 1501 1502 1503 1504 1504 1505 1506 1506 1506 1506 1505 1505 1504 1504 1504 1503 1503 1502 1501 1500 1499 1498 1497 1497 1496 1495 1494 1493 1493 1492 1491 1491 1490 1490 1489 1488 1487 1487 1488 1487 1487 1486
1481 1480 1480 1480 1479 1479 1479 1478 1478 1478 1478 1478 1478 1478 1479 1479 1479 1479 1479 1479 1478 1478 1478 1478 1478 1477 1478 1478 1479 1480 1480 1481 1483 1484 1484 1484 1486 1489 1492 1493 1494 1496 1497 1499 1500 1500 1501 1502 1502 1503 1504 1503 1503 1502 1502 1502 1501 1501 1501 1500 1500 1499 1498 1496 1495 1494 1493 1492 1491 1490 1489 1489 1488 1487 1486 1486 1486 1485 1484 1483 1482 1483 1482 1482 1481
1480 1480 1479 1479 1478 1478 1477 1477 1476 1476 1476 1476 1476 1476 1476 1476 1477 1477 1477 1477 1476 1476 1476 1476 1476 1476 1476 1476 1476 1476 1477 1478 1480 1481 1481 1482 1483 1485 1488 1492 1494 1495 1496 1497 1498 1498 1499 1500 1500 1500 1501 1501 1500 1500 1500 1499 1499 1498 1498 1497 1496 1496 1495 1493 1492 1491 1489 1488 1487 1486 1485 1485 1484 1483 1482 1482 1481 1481 1480 1479 1478 1478 1477 1477 1476
1480 1480 1479 1478 1477 1476 1475 1475 1475 1475 1475 1475 1475 1475 1474 1474 1474 1474 1474 1474 1474 1473 1474 1473 1474 1474 1474 1474 1474 1474 1474 1475 1476 1477 1478 1479 1479 1481 1483 1486 1489 1492 1493 1495 1496 1497 1497 1497 1497 1497 1498 1498 1498 1498 1498 1497 1496 1495 1495 1494 1493 1492 1492 1490 1489 1487 1485 1484 1483 1482 1481 1480 1479 1479 1478 1477 1477 1476 1476 1475 1474 1473 1473 1472 1471
1479 1479 1478 1477 1476 1475 1474 1474 1474 1474 1474 1474 1473 1473 1473 1472 1472 1471 1471 1471 1471 1471 1470 1470 1471 1471 1471 1472 1471 1471 1471 1472 1472 1473 1474 1475 1477 1478 1481 1482 1484 1487 1490 1491 1492 1495 1495 1495 1495 1494 1495 1496 1496 1496 1495 1494 1493 1492 1491 1490 1490 1489 1488 1487 1485 1483 1481 1480 1478 1477 1476 1475 1475 1474 1473 1472 1472 1471 1471 1470 1469 1469 1468 1467 1467
1477 1477 1476 1475 1475 1474 1474 1473 1473 1473 1472 1472 1471 1471 1470 1470 1469 1468 1468 1468 1468 1467 1467 1467 1468 1468 1468 1469 1468 1468 1468 1469 1469 1470 1470 1472 1473 1475 1477 1479 1480 1483 1485 1486 1488 1492 1493 1493 1493 1492 1493 1493 1493 1493 1492 1491 1490 1489 1488 1487 1486 1485 1484 1483 1481 1480 1478 1476 1474 1473 1471 1470 1470 1469 1468 1467 1466 1466 1465 1464 1464 1463 1462 1462 1462
1476 1476 1475 1474 1474 1473 1473 1472 1471 1471 1470 1470 1469 1469 1468 1467 1466 1466 1465 1465 1464 1464 1464 1464 1464 1464 1464 1465 1465 1465 1465 1465 1466 1466 1467 1468 1470 1471 1473 1475 1477 1479 1481 1482 1485 1489 1491 1492 1491 1491 1491 1491 1491 1490 1490 1489 1488 1486 1485 1483 1482 1481 1480 1479 1478 1476 1474 1472 1470 1468 1466 1465 1465 1464 1463 1463 1462 1461 1459 1458 1458 1457 1456 1456 1456
1475 1474 1474 1473 1473 1472 1471 1470 1469 1469 1468 1468 1467 1466 1465 1464 1463 1462 1462 1461 1461 1460 1460 1460 1460 1460 1460 1460 1461 1461 1461 1461 1462 1463 1464 1465 1467 1469 1471 1473 1475 1477 1479 1480 1482 1486 1489 1490 1490 1489 1489 1489 1489 1488 1487 1486 1485 1483 1481 1480 1478 1477 1476 1475 1474 1472 1470 1468 1466 1464 1462 1460 1459 1459 1459 1458 1457 1455 1454 1452 1451 1450 1450 1449 1449
1474 1473 1472 1472 1471 1470 1469 1467 1466 1466 1465 1464 1464 1462 1461 1460 1460 1459 1458 1458 1457 1456 1455 1455 1455 1456 1456 1456 1457 1457 1457 1458 1458 1459 1461 1462 1464 1466 1468 1470 1472 1475 1477 1478 1481 1484 1486 1487 1487 1487 1487 1487 1486 1486 1485 1483 1482 1480 1478 1476 1475 1473 1471 1470 1469 1468 1466 1463 1461 1459 1457 1455 1454 1453 1453 1453 1452 1450 1448 1446 1444 1443 1443 1442 1441
1473 1472 1471 1470 1469 1468 1467 1465 1464 1463 1462 1461 1460 1459 1457 1456 1455 1455 1454 1454 1453 1452 1451 1451 1451 1451 1452 1452 1452 1453 1453 1454 1455 1456 1458 1460 1462 1464 1466 1467 1469 1472 1474 1477 1480 1482 1483 1484 1484 1484 1484 1484 1484 1483 1482 1481 1479 1478 1475 1473 1471 1469 1467 1466 1464 1463 1460 1458 1456 1454 1452 1450 1448 1448 1447 1447 1447 1445 1443 1440 1438 1437 1436 1434 1434
1471 1470 1469 1468 1467 1466 1465 1463 1462 1460 1459 1459 1457 1455 1454 1452 1451 1451 1451 1449 1448 1447 1448 1447 1447 1447 1447 1447 1448 1448 1449 1450 1451 1454 1456 1458 1460 1461 1463 1465 1467 1470 1473 1476 1478 1480 1480 1481 1481 1481 1481 1481 1481 1480 1479 1478 1477 1475 1472 1470 1468 1465 1463 1461 1459 1457 1455 1453 1450 1449 1447 1445 1443 1443 1442 1441 1441 1440 1437 1435 1433 1431 1428 1426 1427
1469 1468 1467 1466 1465 1463 1462 1461 1459 1457 1457 1455 1454 1452 1450 1448 1448 1447 1446 1445 1444 1444 1443 1443 1442 1442 1442 1443 1443 1444 1445 1447 1448 1451 1454 1456 1457 1458 1460 1463 1466 1469 1472 1474 1476 1478 1478 1478 1479 1479 1479 1478 1478 1478 1476 1475 1474 1472 1469 1467 1465 1462 1459 1457 1455 1452 1449 1447 1445 1443 1442 1441 1439 1438 1437 1436 1436 1435 1432 1430 1429 1426 1422 1420 1421
1466 1466 1465 1463 1462 1461 1459 1458 1456 1455 1453 1452 1450 1449 1447 1445 1444 1443 1442 1440 1440 1440 1439 1438 1437 1437 1437 1438 1439 1440 1442 1443 1446 1449 1451 1454 1457 1460 1462 1464 1467 1469 1471 1473 1475 1476 1476 1476 1476 1476 1476 1475 1475 1475 1474 1472 1471 1469 1467 1464 1462 1459 1456 1453 1450 1447 1444 1441 1439 1437 1436 1435 1434 1432 1431 1430 1430 1429 1427 1425 1423 1421 1417 1415 1417
1463 1463 1462 1460 1459 1458 1456 1455 1453 1452 1450 1449 1447 1445 1443 1442 1441 1439 1437 1436 1436 1435 1434 1433 1432 1432 1432 1433 1435 1436 1438 1441 1444 1446 1449 1452 1456 1461 1464 1467 1469 1470 1471 1472 1473 1474 1474 1474 1474 1474 1473 1473 1472 1471 1471 1469 1467 1466 1464 1461 1459 1457 1454 1450 1446 1442 1439 1436 1433 1432 1430 1429 1428 1426 1425 1424 1423 1422 1421 1419 1417 1415 1413 1412 1412
1460 1460 1459 1457 1455 1454 1453 1451 1450 1449 1447 1446 1444 1442 1440 1439 1437 1435 1434 1433 1431 1430 1429 1428 1427 1428 1428 1429 1431 1433 1436 1439 1442 1445 1448 1451 1455 1460 1464 1467 1469 1470 1470 1470 1471 1472 1472 1472 1472 1472 1472 1471 1470 1469 1467 1466 1464 1463 1461 1459 1457 1454 1451 1446 1441 1437 1434 1431 1428 1426 1424 1423 1422 1421 1419 1418 1417 1416 1415 1412 1410 1409 1408 1408 1407
1457 1456 1456 1454 1452 1450 1449 1447 1446 1445 1444 1443 1441 1438 1437 1435 1432 1431 1430 1429 1427 1426 1424 1423 1423 1424 1425 1427 1429 1432 1435 1438 1441 1445 1449 1453 1456 1460 1464 1467 1468 1469 1468 1468 1469 1470 1470 1471 1471 1471 1470 1469 1468 1466 1465 1463 1462 1460 1458 1457 1454 1451 1447 1443 1437 1433 1429 1426 1423 1421 1419 1418 1417 1415 1413 1412 1410 1409 1407 1405 1403 1403 1402 1402 1402
1454 1453 1452 1451 1449 1447 1445 1444 1443 1442 1441 1439 1438 1435 1433 1431 1428 1426 1425 1424 1422 1421 1420 1419 1421 1422 1424 1426 1428 1431 1435 1438 1441 1445 1450 1454 1457 1460 1463 1465 1467 1467 1467 1467 1468 1468 1468 1469 1469 1468 1468 1466 1465 1464 1463 1461 1460 1458 1456 1453 1450 1447 1443 1439 1434 1429 1425 1422 1419 1417 1415 1413 1412 1410 1408 1406 1404 1403 1401 1399 1398 1397 1397 1396 1396
1451 1450 1449 1448 1446 1444 1442 1440 1440 1439 1437 1436 1435 1433 1430 1427 1425 1423 1421 1419 1418 1417 1417 1418 1420 1422 1424 1426 1429 1432 1436 1439 1443 1447 1451 1454 1457 1459 1461 1463 1465 1466 1466 1466 1467 1467 1467 1467 1467 1466 1465 1464 1463 1462 1461 1459 1457 1455 1453 1450 1446 1442 1438 1434 1429 1424 1421 1418 1415 1412 1410 1408 1406 1404 1402 1400 1398 1397 1395 1394 1393 1392 1392 1391 1390
1449 1448 1447 1446 1443 1441 1440 1438 1437 1436 1435 1433 1432 1430 1428 1425 1422 1419 1417 1416 1416 1416 1416 1418 1420 1422 1425 1428 1430 1434 1438 1441 1445 1448 1452 1455 1457 1458 1460 1462 1464 1465 1465 1466 1466 1466 1466 1466 1465 1465 1463 1462 1461 1460 1458 1457 1455 1452 1448 1444 1440 1436 1432 1428 1424 1420 1416 1413 1410 1407 1405 1403 1401 1399 1397 1395 1393 1391 1390 1389 1388 1387 1386 1384 1383
1446 1446 1445 1443 1441 1439 1437 1436 1435 1434 1433 1432 1431 1429 1426 1423 1420 1417 1416 1415 1415 1416 1418 1420 1422 1425 1428 1430 1432 1436 1439 1443 1447 1450 1453 1455 1457 1459 1460 1462 1463 1464 1465 1465 1465 1465 1465 1465 1464 1463 1462 1460 1459 1457 1455 1453 1450 1446 1442 1438 1434 1430 1426 1422 1418 1415 1411 1408 1405 1402 1401 1399 1397 1395 1393 1391 1389 1387 1386 1384 1382 1381 1380 1378 1377
1444 1443 1442 1440 1439 1437 1436 1434 1434 1433 1432 1431 1430 1428 1426 1423 1421 1418 1417 1417 1418 1420 1422 1425 1428 1430 1431 1433 1435 1438 1441 1445 1448 1451 1454 1456 1458 1459 1461 1462 1463 1463 1464 1464 1464 1464 1463 1463 1462 1460 1459 1458 1456 1454 1452 1449 1445 1441 1437 1433 1429 1425 1421 1417 1414 1410 1407 1404 1402 1399 1397 1395 1393 1391 1389 1387 1385 1383 1381 1379 1377 1375 1374 1372 1371
1441 1440 1439 1437 1436 1435 1434 1433 1432 1432 1431 1430 1429 1428 1427 1425 1423 1422 1421 1421 1422 1424 1426 1429 1432 1434 1436 1437 1439 1441 1444 1447 1450 1452 1455 1457 1459 1460 1461 1461 1462 1463 1463 1463 1463 1462 1462 1461 1460 1459 1457 1455 1453 1451 1449 1446 1442 1438 1434 1430 1425 1421 1418 1414 1411 1408 1405 1402 1399 1397 1395 1392 1390 1387 1385 1382 1380 1378 1376 1374 1372 1370 1369 1367 1366
1438 1437 1435 1434 1433 1433 1432 1431 1431 1430 1429 1428 1428 1427 1427 1427 1427 1426 1426 1426 1426 1428 1430 1432 1434 1436 1439 1441 1442 1444 1446 1449 1451 1453 1455 1457 1459 1460 1460 1461 1461 1462 1462 1462 1461 1461 1460 1460 1459 1458 1456 1454 1452 1449 1446 1443 1439 1435 1432 1428 1424 1420 1417 1413 1410 1407 1404 1401 1398 1395 1392 1389 1387 1384 1381 1379 1376 1374 1371 1369 1367 1365 1364 1362 1360
1435 1433 1432 1431 1431 1430 1430 1429 1429 1428 1428 1427 1427 1426 1427 1428 1429 1429 1430 1430 1431 1431 1433 1435 1437 1439 1441 1443 1444 1446 1448 1450 1452 1454 1455 1457 1458 1459 1460 1460 1461 1461 1461 1460 1460 1459 1459 1458 1458 1456 1455 1453 1450 1447 1443 1440 1436 1433 1429 1426 1423 1419 1416 1412 1409 1405 1402 1399 1396 1392 1389 1387 1384 1382 1379 1376 1373 1370 1368 1365 1362 1360 1358 1357 1355